Location: Four Corners
(38.2757°N, 122.4608°W)
Time: 12:52:25
(UTC+00:00)

SL-16 R/B - Pass Details

Date: 08 December 2019
Orbit: 840 x 849 km, 71.0° (Epoch: 17 January)

Event Time Altitude Azimuth Distance (km) Brightness Sun altitude
Exits shadow 11:34:28 19° 85° (E) 1,893 4.5 -42.3°
Drops below altitude 10° 11:36:56 10° 108° (ESE) 2,469 5.2 -41.8°
Sets 11:39:52 0° 122° (ESE) 3,399 6.0 -41.2°
